Regional Weather Roundup
Issued by NWS

Home | Current Version | Previous Version | Text Only | Print | Product List | Glossary Off
Versions: 1 2 3 4 5 6 7 8 9 10 11 12 13 14 15 16 17 18 19 20 21 22 23 24 25 26 27 28 29 30 31 32 33 34 35 36

000
ASUS45 KBOI 221610
RWRID
WEATHER ROUNDUP FOR IDAHO
NATIONAL WEATHER SERVICE BOISE ID
1000 AM MDT WED OCT 22 2014

NOTE: "FAIR" INDICATES FEW OR NO CLOUDS BELOW 12000 FEET
WITH NO SIGNIFICANT WEATHER AND/OR OBSTRUCTIONS TO VISIBILITY

IDZ012-014-221700-
SOUTHWEST IDAHO


CITY           SKY/WX    TMP DP  RH WIND       PRES   REMARKS
BOISE          MOSUNNY   50  36  58 SE15      30.11R
CALDWELL       PTSUNNY   46  32  57 SE13      30.13R
MOUNTAIN HOME  MOSUNNY   45  40  85 E20       30.14R
$$

IDZ016-017-221700-
SOUTHCENTRAL IDAHO


CITY           SKY/WX    TMP DP  RH WIND       PRES   REMARKS
BURLEY         MOSUNNY   41  32  70 CALM      30.18R
JEROME         MOSUNNY   44  33  65 NE10      30.18R
TWIN FALLS     MOSUNNY   50  33  52 S6        30.17R
$$

IDZ019>023-221700-
SOUTHEAST IDAHO


CITY           SKY/WX    TMP DP  RH WIND       PRES   REMARKS
IDAHO FALLS    PTSUNNY   41  32  70 S7        30.21R
POCATELLO      SUNNY     43  34  70 NW5       30.21R
REXBURG        MOSUNNY   40  32  73 S3        30.21R
$$

IDZ006-010-011-018-031-032-221700-
CENTRAL IDAHO MOUNTAINS


CITY           SKY/WX    TMP DP  RH WIND       PRES   REMARKS
MCCALL         FOG       34  34 100 CALM      30.11R VSB 1/4
HAILEY         MOSUNNY   37  28  70 NW8       30.22R WCI  31
STANLEY          N/A     30  28  92 NE5       30.20R WCI  25
SALMON         CLOUDY   N/A N/A N/A MISG        N/A  VSB 1/4
CHALLIS        SUNNY     38  31  76 CALM      30.17S
$$

IDZ002-004-006-007-026-221700-
NORTHERN IDAHO


CITY           SKY/WX    TMP DP  RH WIND       PRES   REMARKS
LEWISTON       PTSUNNY   49  42  77 E10       29.97R
LOWELL           N/A     45  42  89 CALM      30.08S
COEUR D`ALENE  CLOUDY    45  43  93 CALM      29.94S
MULLAN PASS    MOSUNNY   35  34  96 VRB6      29.99R WCI  30
$$



USA.gov is the U.S. government's official web portal to all federal, state and local government web resources and services.